Погода в Ветлуге

Россия / Нижегородская область     57°51′10″N   45°46′33″E
темп.,
°C
ветер,
м/с
пор.,
м/с
влажн.,
%
обл.,
%
осадки,
мм/ч
давл.,
гПа
погр.,
м
9 мая, вс
вс900:00+10юв51381100 0.0 1010550
03:00+10юв51487100 0.0 1008528
06:00+11ююв51485100 0.0 1008685
09:00+11ююв41489100 1.0 1008736
12:00+17ю61068100 0.1 10091244
15:00+14ю3789100 2.6 1009390
18:00+13ююв41194100 4.6 1009691
21:00+12зюз1399100 7.8 1011168
10 мая, пн
пн1000:00+9ссз3698100 2.1 1013395
03:00+7сз4996100 2.3 1017486
06:00+6ссз4994100 0.1 1020520
09:00+6ссз3794100 0.3 1023602
12:00+6с4891100 0.2 1026662
15:00+11ссв3568100 0.2 10271272
18:00+10всв35694 0.0 1028680
21:00+5в11921 0.0 103010
11 мая, вт
вт1100:00+4св22931 0.0 103114
03:00+3св229460 0.0 103235
06:00+6всв248034 0.0 1033168
09:00+12всв34545 0.0 1033673
12:00+16в233925 0.0 10321052
15:00+17всв23369 0.0 10311176
18:00+16в22568 0.0 103154
21:00+10юв22685 0.0 103210
12 мая, ср
ср1200:00+8в11725 0.0 103310
03:00+7в22754 0.0 103219
06:00+10в24695 0.0 1033136
09:00+16вюв35495 0.0 1032646
12:00+19вюв34386 0.0 10321058
15:00+21юв33384 0.0 10301129
18:00+19вюв23583 0.0 103090
21:00+13вюв22750 0.0 103022
13 мая, чт
чт1300:00+11вюв22780 0.0 103024
03:00+9в22810 0.0 103030
06:00+12вюв24720 0.0 1029128
09:00+19вюв355297 0.0 1028604
12:00+22юв454053 0.0 10271240
15:00+22юв4539100 0.0 10261343
18:00+19вюв2661100 0.0 1025177
21:00+15юв237055 0.0 102545